Torna al catalogo

IRIDIUM 116

AttivoComunicazioniPO
NORAD 43072·PAYLOAD·🇺🇸 United States

Lanciato Dec 23, 2017 da Vandenberg Space Force Base

Loading…

Prossimi Passaggi (prossime 24 ore)

TLE

AggiornatoSource: CelesTrak SupGP

Epoca: Sep 15, 2026, 02:05 UTC

1 43072C 17083C   26258.08715278 -.00001721  00000+0 -61537-3 0  2581
2 43072  86.3913 284.4168 0002025  90.8275 322.5164 14.34221128    13

Traccia IRIDIUM 116 in tempo reale con AllMySat

Download on the App Store